TimeCDT,TemperatureF,Dew PointF,Humidity,Sea Level PressureIn,VisibilityMPH,Wind Direction,Wind SpeedMPH,Gust SpeedMPH,PrecipitationIn,Events,Conditions,WindDirDegrees,DateUTC
12:51 AM,75.0,66.9,76,30.02,10.0,SSE,9.2,16.1,N/A,,Clear,150,2013-09-11 05:51:00
1:51 AM,73.9,66.9,79,30.02,10.0,SSE,4.6,-,N/A,,Clear,150,2013-09-11 06:51:00
2:51 AM,72.0,66.9,84,30.02,10.0,SE,5.8,-,N/A,,Clear,130,2013-09-11 07:51:00
3:51 AM,70.0,66.9,90,30.03,10.0,East,4.6,-,N/A,,Clear,80,2013-09-11 08:51:00
4:51 AM,69.1,66.0,90,30.03,10.0,ENE,4.6,-,N/A,,Clear,70,2013-09-11 09:51:00
5:21 AM,69.8,66.2,88,30.09,10.0,Calm,Calm,-,N/A,,Mostly Cloudy,0,2013-09-11 10:21:00
5:51 AM,69.1,66.0,90,30.03,10.0,ENE,3.5,-,N/A,,Overcast,70,2013-09-11 10:51:00
6:37 AM,68.0,66.2,94,30.10,10.0,Calm,Calm,-,N/A,,Partly Cloudy,0,2013-09-11 11:37:00
6:51 AM,68.0,66.0,93,30.04,10.0,ENE,3.5,-,N/A,,Scattered Clouds,70,2013-09-11 11:51:00
7:51 AM,69.1,66.0,90,30.06,10.0,East,3.5,-,N/A,,Mostly Cloudy,100,2013-09-11 12:51:00
8:01 AM,69.8,66.2,88,30.12,10.0,East,4.6,-,N/A,,Scattered Clouds,80,2013-09-11 13:01:00
8:51 AM,71.1,66.9,87,30.09,10.0,ENE,8.1,-,N/A,,Scattered Clouds,70,2013-09-11 13:51:00
9:01 AM,71.6,66.2,83,30.15,10.0,East,8.1,-,N/A,,Mostly Cloudy,90,2013-09-11 14:01:00
9:47 AM,75.2,66.2,73,30.15,10.0,SE,9.2,-,N/A,,Overcast,130,2013-09-11 14:47:00
9:51 AM,75.0,66.9,76,30.09,10.0,ESE,11.5,-,N/A,,Overcast,120,2013-09-11 14:51:00
10:51 AM,78.1,66.0,66,30.09,10.0,SSE,8.1,-,N/A,,Mostly Cloudy,160,2013-09-11 15:51:00
11:18 AM,80.6,64.4,58,30.16,10.0,SE,10.4,-,N/A,,Overcast,130,2013-09-11 16:18:00
11:51 AM,82.0,64.0,54,30.08,10.0,SE,8.1,-,N/A,,Overcast,130,2013-09-11 16:51:00
12:51 PM,84.9,63.0,48,30.06,10.0,SE,15.0,23.0,N/A,,Mostly Cloudy,130,2013-09-11 17:51:00
1:51 PM,87.1,61.0,41,30.04,10.0,SE,8.1,17.3,N/A,,Scattered Clouds,130,2013-09-11 18:51:00
2:51 PM,89.1,61.0,39,30.00,10.0,SSE,12.7,-,N/A,,Partly Cloudy,150,2013-09-11 19:51:00
3:51 PM,91.0,57.9,33,29.98,10.0,SSE,12.7,20.7,N/A,,Partly Cloudy,150,2013-09-11 20:51:00
4:51 PM,90.0,55.9,31,29.96,10.0,SE,11.5,19.6,N/A,,Partly Cloudy,140,2013-09-11 21:51:00
5:51 PM,91.0,60.1,35,29.95,10.0,East,13.8,-,N/A,,Overcast,90,2013-09-11 22:51:00
6:51 PM,86.0,64.9,49,29.96,10.0,ESE,15.0,27.6,N/A,,Scattered Clouds,120,2013-09-11 23:51:00
7:51 PM,84.9,62.1,46,29.97,10.0,SE,12.7,-,N/A,,Scattered Clouds,130,2013-09-12 00:51:00
8:51 PM,82.9,62.1,49,29.99,10.0,ESE,6.9,-,N/A,,Overcast,120,2013-09-12 01:51:00
9:51 PM,81.0,62.1,52,30.01,10.0,SE,6.9,-,N/A,,Partly Cloudy,130,2013-09-12 02:51:00
10:51 PM,79.0,62.1,56,30.02,10.0,SE,6.9,-,N/A,,Clear,140,2013-09-12 03:51:00
11:51 PM,77.0,63.0,62,30.02,10.0,South,4.6,-,N/A,,Clear,180,2013-09-12 04:51:00